Time,TemperatureF,DewpointF,PressureIn,WindDirection,WindDirectionDegrees,WindSpeedMPH,WindSpeedGustMPH,Humidity,HourlyPrecipIn,Conditions,Clouds,dailyrainin,SoftwareType,DateUTC
2013-04-09 00:00:00,50.0,40.3,27.03,WSW,248,1.6,1.6,69,0.05,,,0.00,WUHU216HW,2013-04-09 07:00:00,
2013-04-09 00:05:00,50.2,40.5,27.03,SW,225,2.5,2.5,69,0.05,,,0.00,WUHU216HW,2013-04-09 07:05:00,
2013-04-09 00:30:00,50.8,41.1,27.06,WSW,248,1.1,1.1,69,0.06,,,0.00,WUHU216HW,2013-04-09 07:30:00,
2013-04-09 00:35:00,50.9,40.8,27.06,SSW,203,1.1,1.1,68,0.06,,,0.02,WUHU216HW,2013-04-09 07:35:00,
2013-04-09 00:40:00,50.9,40.8,27.06,SSW,203,1.1,1.1,68,0.06,,,0.02,WUHU216HW,2013-04-09 07:40:00,
2013-04-09 01:00:00,51.1,41.0,27.07,ENE,68,0.9,0.9,68,0.06,,,0.02,WUHU216HW,2013-04-09 08:00:00,
2013-04-09 01:05:00,51.1,41.0,27.07,SE,135,0.4,0.9,68,0.06,,,0.06,WUHU216HW,2013-04-09 08:05:00,
2013-04-09 01:10:00,51.1,41.0,27.07,SE,135,0.4,0.4,68,0.06,,,0.06,WUHU216HW,2013-04-09 08:10:00,
2013-04-09 01:30:00,51.3,41.1,27.06,NNW,338,0.0,0.0,68,0.05,,,0.06,WUHU216HW,2013-04-09 08:30:00,
2013-04-09 01:35:00,51.3,41.1,27.06,NNW,338,0.0,0.0,68,0.05,,,0.07,WUHU216HW,2013-04-09 08:35:00,
2013-04-09 01:40:00,51.3,41.1,27.06,NNW,338,0.0,0.0,68,0.05,,,0.07,WUHU216HW,2013-04-09 08:40:00,
2013-04-09 02:00:00,51.5,41.3,27.07,NNE,23,0.0,0.0,68,0.00,,,0.07,WUHU216HW,2013-04-09 09:00:00,
2013-04-09 02:05:00,51.5,41.3,27.07,NNE,23,0.0,0.0,68,0.00,,,0.07,WUHU216HW,2013-04-09 09:05:00,
2013-04-09 02:10:00,51.5,41.3,27.07,NNE,23,0.0,0.0,68,0.00,,,0.07,WUHU216HW,2013-04-09 09:10:00,
2013-04-09 02:30:00,51.3,41.5,27.08,SE,135,0.2,0.2,69,0.00,,,0.07,WUHU216HW,2013-04-09 09:30:00,
2013-04-09 02:35:00,51.3,41.1,27.08,SE,135,0.2,0.2,68,0.00,,,0.07,WUHU216HW,2013-04-09 09:35:00,
2013-04-09 02:40:00,51.3,41.1,27.08,SE,135,0.2,0.2,68,0.00,,,0.07,WUHU216HW,2013-04-09 09:40:00,
2013-04-09 03:00:00,50.8,41.4,27.08,NE,45,0.0,0.0,70,0.00,,,0.07,WUHU216HW,2013-04-09 10:00:00,
2013-04-09 03:05:00,50.8,41.4,27.08,NE,45,0.0,0.0,70,0.00,,,0.07,WUHU216HW,2013-04-09 10:05:00,
2013-04-09 03:10:00,50.8,41.4,27.08,NE,45,0.0,0.0,70,0.00,,,0.07,WUHU216HW,2013-04-09 10:10:00,
2013-04-09 03:30:00,50.9,42.0,27.08,NNW,338,0.2,0.2,71,0.00,,,0.07,WUHU216HW,2013-04-09 10:30:00,
2013-04-09 03:35:00,50.9,42.0,27.08,NNW,338,0.0,0.2,71,0.00,,,0.07,WUHU216HW,2013-04-09 10:35:00,
2013-04-09 03:40:00,50.9,42.0,27.08,NNW,338,0.0,0.0,71,0.00,,,0.07,WUHU216HW,2013-04-09 10:40:00,
2013-04-09 04:00:00,50.9,42.3,27.09,WSW,248,0.4,0.4,72,0.00,,,0.07,WUHU216HW,2013-04-09 11:00:00,
2013-04-09 04:05:00,50.9,42.3,27.09,West,270,0.4,0.4,72,0.00,,,0.07,WUHU216HW,2013-04-09 11:05:00,
2013-04-09 04:10:00,50.9,42.3,27.09,West,270,0.4,0.4,72,0.00,,,0.07,WUHU216HW,2013-04-09 11:10:00,
2013-04-09 04:30:00,50.9,42.6,27.09,West,270,0.0,0.0,73,0.00,,,0.07,WUHU216HW,2013-04-09 11:30:00,
2013-04-09 04:35:00,50.9,42.6,27.09,West,270,0.4,0.4,73,0.00,,,0.07,WUHU216HW,2013-04-09 11:35:00,
2013-04-09 05:00:00,51.7,43.0,27.11,ENE,68,0.0,0.0,72,0.00,,,0.07,WUHU216HW,2013-04-09 12:00:00,
2013-04-09 05:05:00,51.7,43.0,27.11,ENE,68,0.0,0.0,72,0.00,,,0.07,WUHU216HW,2013-04-09 12:05:00,
2013-04-09 05:10:00,51.7,43.0,27.11,ENE,68,0.0,0.0,72,0.00,,,0.07,WUHU216HW,2013-04-09 12:10:00,
2013-04-09 05:30:00,51.5,43.1,27.11,ESE,113,0.0,0.0,73,0.00,,,0.07,WUHU216HW,2013-04-09 12:30:00,
2013-04-09 05:35:00,51.5,43.1,27.11,ESE,113,0.0,0.0,73,0.00,,,0.07,WUHU216HW,2013-04-09 12:35:00,
2013-04-09 06:00:00,52.0,43.7,27.12,WSW,248,0.0,0.0,73,0.00,,,0.07,WUHU216HW,2013-04-09 13:00:00,
2013-04-09 06:05:00,52.0,43.7,27.12,WSW,248,0.0,0.0,73,0.00,,,0.07,WUHU216HW,2013-04-09 13:05:00,
2013-04-09 06:10:00,52.0,43.7,27.12,WSW,248,0.0,0.0,73,0.00,,,0.07,WUHU216HW,2013-04-09 13:10:00,
2013-04-09 06:30:00,52.0,43.7,27.13,WSW,248,0.0,0.0,73,0.00,,,0.07,WUHU216HW,2013-04-09 13:30:00,
2013-04-09 06:35:00,52.0,43.7,27.13,West,270,0.0,0.0,73,0.00,,,0.07,WUHU216HW,2013-04-09 13:35:00,
2013-04-09 06:40:00,52.0,43.7,27.13,West,270,0.0,0.0,73,0.00,,,0.07,WUHU216HW,2013-04-09 13:40:00,
2013-04-09 07:00:00,52.2,43.8,27.14,West,270,0.4,0.4,73,0.01,,,0.07,WUHU216HW,2013-04-09 14:00:00,
2013-04-09 07:05:00,52.2,43.8,27.14,WNW,293,0.4,0.9,73,0.01,,,0.08,WUHU216HW,2013-04-09 14:05:00,
2013-04-09 07:10:00,52.2,43.8,27.14,WNW,293,0.4,0.9,73,0.01,,,0.08,WUHU216HW,2013-04-09 14:10:00,
2013-04-09 07:30:00,52.6,42.8,27.15,WSW,248,0.4,0.4,69,0.01,,,0.08,WUHU216HW,2013-04-09 14:30:00,
2013-04-09 07:35:00,52.6,42.8,27.15,WSW,248,0.0,0.4,69,0.01,,,0.08,WUHU216HW,2013-04-09 14:35:00,
2013-04-09 07:40:00,52.6,42.8,27.15,WSW,248,0.0,0.4,69,0.01,,,0.08,WUHU216HW,2013-04-09 14:40:00,
2013-04-09 08:00:00,53.1,41.6,27.16,West,270,0.4,0.4,65,0.00,,,0.08,WUHU216HW,2013-04-09 15:00:00,
2013-04-09 08:05:00,53.1,41.6,27.16,WNW,293,0.4,0.4,65,0.00,,,0.08,WUHU216HW,2013-04-09 15:05:00,
2013-04-09 08:30:00,53.6,40.1,27.18,SW,225,0.0,0.0,60,0.00,,,0.08,WUHU216HW,2013-04-09 15:30:00,
2013-04-09 08:35:00,53.8,40.3,27.18,SW,225,0.0,0.0,60,0.00,,,0.08,WUHU216HW,2013-04-09 15:35:00,
2013-04-09 08:40:00,53.8,40.3,27.18,SW,225,0.0,0.0,60,0.00,,,0.08,WUHU216HW,2013-04-09 15:40:00,
2013-04-09 09:00:00,54.9,39.0,27.18,SW,225,1.1,1.1,55,0.00,,,0.08,WUHU216HW,2013-04-09 16:00:00,
2013-04-09 09:05:00,54.7,38.8,27.18,WSW,248,0.7,1.1,55,0.00,,,0.08,WUHU216HW,2013-04-09 16:05:00,
2013-04-09 09:10:00,54.7,38.8,27.18,WSW,248,0.7,0.7,55,0.00,,,0.08,WUHU216HW,2013-04-09 16:10:00,
2013-04-09 09:30:00,55.6,37.3,27.18,NW,315,2.2,2.2,50,0.00,,,0.08,WUHU216HW,2013-04-09 16:30:00,
2013-04-09 09:35:00,55.6,37.3,27.18,WSW,248,1.3,2.2,50,0.00,,,0.08,WUHU216HW,2013-04-09 16:35:00,
2013-04-09 09:40:00,55.6,37.3,27.18,WSW,248,1.3,2.2,50,0.00,,,0.08,WUHU216HW,2013-04-09 16:40:00,
2013-04-09 10:00:00,57.8,36.5,27.19,WSW,248,3.8,3.8,45,0.00,,,0.08,WUHU216HW,2013-04-09 17:00:00,
2013-04-09 10:05:00,57.8,36.5,27.19,SW,225,3.8,3.8,45,0.00,,,0.08,WUHU216HW,2013-04-09 17:05:00,
2013-04-09 10:10:00,57.8,36.5,27.19,SW,225,3.8,3.8,45,0.00,,,0.08,WUHU216HW,2013-04-09 17:10:00,
2013-04-09 10:30:00,59.4,35.6,27.19,WSW,248,5.4,5.4,41,0.00,,,0.08,WUHU216HW,2013-04-09 17:30:00,
2013-04-09 10:35:00,59.4,35.6,27.19,WSW,248,5.4,5.4,41,0.00,,,0.08,WUHU216HW,2013-04-09 17:35:00,
2013-04-09 11:00:00,60.3,35.2,27.19,West,270,2.5,2.5,39,0.00,,,0.08,WUHU216HW,2013-04-09 18:00:00,
2013-04-09 11:05:00,60.3,35.2,27.19,WSW,248,2.7,2.7,39,0.00,,,0.08,WUHU216HW,2013-04-09 18:05:00,
2013-04-09 11:10:00,60.3,35.2,27.19,WSW,248,2.7,2.7,39,0.00,,,0.08,WUHU216HW,2013-04-09 18:10:00,
2013-04-09 11:30:00,60.7,34.0,27.19,West,270,6.0,6.0,37,0.00,,,0.08,WUHU216HW,2013-04-09 18:30:00,
2013-04-09 11:35:00,60.7,33.3,27.19,West,270,6.0,6.0,36,0.00,,,0.08,WUHU216HW,2013-04-09 18:35:00,
2013-04-09 11:40:00,60.7,33.3,27.19,West,270,6.0,6.0,36,0.00,,,0.08,WUHU216HW,2013-04-09 18:40:00,
2013-04-09 12:00:00,62.6,31.5,27.19,WSW,248,4.5,4.5,31,0.00,,,0.08,WUHU216HW,2013-04-09 19:00:00,
2013-04-09 12:05:00,62.6,31.5,27.19,WSW,248,4.0,4.5,31,0.00,,,0.08,WUHU216HW,2013-04-09 19:05:00,
2013-04-09 12:10:00,62.6,31.5,27.19,WSW,248,4.0,4.5,31,0.00,,,0.08,WUHU216HW,2013-04-09 19:10:00,
2013-04-09 12:30:00,62.8,31.0,27.18,WSW,248,6.0,6.0,30,0.00,,,0.08,WUHU216HW,2013-04-09 19:30:00,
2013-04-09 12:35:00,62.8,31.7,27.18,SW,225,3.8,6.3,31,0.00,,,0.08,WUHU216HW,2013-04-09 19:35:00,
2013-04-09 12:40:00,62.8,31.7,27.18,SW,225,3.8,6.3,31,0.00,,,0.08,WUHU216HW,2013-04-09 19:40:00,
2013-04-09 13:00:00,63.2,29.4,27.18,SSW,203,6.9,6.9,28,0.00,,,0.08,WUHU216HW,2013-04-09 20:00:00,
2013-04-09 13:05:00,63.2,29.4,27.18,SW,225,8.1,8.1,28,0.00,,,0.08,WUHU216HW,2013-04-09 20:05:00,
2013-04-09 13:10:00,63.2,29.4,27.18,SW,225,8.1,8.1,28,0.00,,,0.08,WUHU216HW,2013-04-09 20:10:00,
2013-04-09 13:30:00,62.8,29.0,27.19,NW,315,3.4,3.4,28,0.00,,,0.08,WUHU216HW,2013-04-09 20:30:00,
2013-04-09 13:35:00,62.6,28.8,27.19,West,270,2.5,3.4,28,0.00,,,0.08,WUHU216HW,2013-04-09 20:35:00,
2013-04-09 13:40:00,62.6,28.8,27.19,West,270,2.5,3.4,28,0.00,,,0.08,WUHU216HW,2013-04-09 20:40:00,
2013-04-09 14:00:00,63.0,29.2,27.19,WSW,248,4.3,4.3,28,0.00,,,0.08,WUHU216HW,2013-04-09 21:00:00,
2013-04-09 14:05:00,63.0,29.2,27.19,WNW,293,2.2,4.3,28,0.00,,,0.08,WUHU216HW,2013-04-09 21:05:00,
2013-04-09 14:10:00,63.0,29.2,27.19,WNW,293,2.2,4.3,28,0.00,,,0.08,WUHU216HW,2013-04-09 21:10:00,
2013-04-09 14:30:00,63.2,29.4,27.18,WNW,293,6.3,6.3,28,0.00,,,0.08,WUHU216HW,2013-04-09 21:30:00,
2013-04-09 14:35:00,63.4,28.5,27.18,WNW,293,6.3,6.3,27,0.00,,,0.08,WUHU216HW,2013-04-09 21:35:00,
2013-04-09 14:40:00,63.4,28.5,27.18,WNW,293,6.3,6.3,27,0.00,,,0.08,WUHU216HW,2013-04-09 21:40:00,
2013-04-09 15:00:00,63.7,28.8,27.18,NW,315,2.9,2.9,27,0.00,,,0.08,WUHU216HW,2013-04-09 22:00:00,
2013-04-09 15:05:00,63.7,28.8,27.18,West,270,5.4,5.4,27,0.00,,,0.08,WUHU216HW,2013-04-09 22:05:00,
2013-04-09 15:30:00,64.8,27.7,27.18,NW,315,3.4,3.4,25,0.00,,,0.08,WUHU216HW,2013-04-09 22:30:00,
2013-04-09 15:35:00,64.8,27.7,27.18,WNW,293,4.0,4.0,25,0.00,,,0.08,WUHU216HW,2013-04-09 22:35:00,
2013-04-09 16:00:00,64.4,27.5,27.18,SW,225,5.8,5.8,25,0.00,,,0.08,WUHU216HW,2013-04-09 23:00:00,
2013-04-09 16:05:00,64.4,27.5,27.18,West,270,6.3,6.3,25,0.00,,,0.08,WUHU216HW,2013-04-09 23:05:00,
2013-04-09 16:10:00,64.4,27.5,27.18,West,270,6.3,6.3,25,0.00,,,0.08,WUHU216HW,2013-04-09 23:10:00,
2013-04-09 16:30:00,63.5,25.8,27.19,NW,315,3.1,3.1,24,0.00,,,0.08,WUHU216HW,2013-04-09 23:30:00,
2013-04-09 16:35:00,63.5,25.8,27.19,WNW,293,2.2,3.1,24,0.00,,,0.08,WUHU216HW,2013-04-09 23:35:00,
2013-04-09 16:40:00,63.5,25.8,27.19,WNW,293,2.2,3.1,24,0.00,,,0.08,WUHU216HW,2013-04-09 23:40:00,
2013-04-09 17:00:00,64.4,26.5,27.19,WNW,293,3.6,3.6,24,0.00,,,0.08,WUHU216HW,2013-04-10 00:00:00,
2013-04-09 17:05:00,64.4,26.5,27.19,WSW,248,3.1,3.6,24,0.00,,,0.08,WUHU216HW,2013-04-10 00:05:00,
2013-04-09 17:10:00,64.4,26.5,27.19,WSW,248,3.1,3.6,24,0.00,,,0.08,WUHU216HW,2013-04-10 00:10:00,
2013-04-09 17:30:00,64.1,25.2,27.20,WNW,293,4.0,4.0,23,0.00,,,0.08,WUHU216HW,2013-04-10 00:30:00,
2013-04-09 17:35:00,64.1,25.2,27.20,WNW,293,4.0,4.0,23,0.00,,,0.08,WUHU216HW,2013-04-10 00:35:00,
2013-04-09 17:40:00,64.1,25.2,27.20,WNW,293,4.0,4.0,23,0.00,,,0.08,WUHU216HW,2013-04-10 00:40:00,
2013-04-09 18:00:00,63.7,24.8,27.20,WSW,248,3.8,3.8,23,0.00,,,0.08,WUHU216HW,2013-04-10 01:00:00,
2013-04-09 18:05:00,63.7,24.8,27.20,WSW,248,3.6,3.8,23,0.00,,,0.08,WUHU216HW,2013-04-10 01:05:00,
2013-04-09 18:10:00,63.7,24.8,27.20,WSW,248,3.6,3.8,23,0.00,,,0.08,WUHU216HW,2013-04-10 01:10:00,
2013-04-09 18:30:00,63.0,24.3,27.20,SW,225,1.8,1.8,23,0.00,,,0.08,WUHU216HW,2013-04-10 01:30:00,
2013-04-09 18:35:00,63.0,24.3,27.20,SW,225,1.6,1.8,23,0.00,,,0.08,WUHU216HW,2013-04-10 01:35:00,
2013-04-09 18:40:00,63.0,24.3,27.20,SW,225,1.6,1.8,23,0.00,,,0.08,WUHU216HW,2013-04-10 01:40:00,
2013-04-09 19:00:00,62.5,24.9,27.21,WSW,248,0.9,0.9,24,0.00,,,0.08,WUHU216HW,2013-04-10 02:00:00,
2013-04-09 19:05:00,62.5,24.9,27.21,WSW,248,1.8,1.8,24,0.00,,,0.08,WUHU216HW,2013-04-10 02:05:00,
2013-04-09 19:10:00,62.5,24.9,27.21,WSW,248,1.8,1.8,24,0.00,,,0.08,WUHU216HW,2013-04-10 02:10:00,
2013-04-09 19:30:00,62.1,24.5,27.22,SW,225,2.9,2.9,24,0.00,,,0.08,WUHU216HW,2013-04-10 02:30:00,
2013-04-09 19:35:00,62.1,24.5,27.22,WSW,248,3.6,3.6,24,0.00,,,0.08,WUHU216HW,2013-04-10 02:35:00,
2013-04-09 20:00:00,61.6,24.0,27.23,SW,225,1.8,1.8,24,0.00,,,0.08,WUHU216HW,2013-04-10 03:00:00,
2013-04-09 20:05:00,61.6,24.0,27.23,WSW,248,1.3,1.8,24,0.00,,,0.08,WUHU216HW,2013-04-10 03:05:00,
2013-04-09 20:10:00,61.6,24.0,27.23,WSW,248,1.3,1.8,24,0.00,,,0.08,WUHU216HW,2013-04-10 03:10:00,
2013-04-09 20:30:00,60.7,24.2,27.24,West,270,0.9,0.9,25,0.00,,,0.08,WUHU216HW,2013-04-10 03:30:00,
2013-04-09 20:35:00,60.7,24.2,27.24,West,270,0.9,0.9,25,0.00,,,0.08,WUHU216HW,2013-04-10 03:35:00,
2013-04-09 21:00:00,60.1,25.8,27.26,NW,315,0.0,0.0,27,0.00,,,0.08,WUHU216HW,2013-04-10 04:00:00,
2013-04-09 21:05:00,60.1,25.8,27.26,NW,315,0.0,0.0,27,0.00,,,0.08,WUHU216HW,2013-04-10 04:05:00,
2013-04-09 21:30:00,57.2,27.6,27.27,NNE,23,0.0,0.0,32,0.00,,,0.08,WUHU216HW,2013-04-10 04:30:00,
2013-04-09 21:35:00,57.2,27.6,27.27,NNE,23,0.0,0.0,32,0.00,,,0.08,WUHU216HW,2013-04-10 04:35:00,
2013-04-09 22:00:00,55.1,29.8,27.27,NNE,23,0.0,0.0,38,0.00,,,0.08,WUHU216HW,2013-04-10 05:00:00,
2013-04-09 22:05:00,55.1,29.8,27.27,NNW,338,0.0,0.0,38,0.00,,,0.08,WUHU216HW,2013-04-10 05:05:00,
2013-04-09 22:10:00,55.1,29.8,27.27,NNW,338,0.0,0.0,38,0.00,,,0.08,WUHU216HW,2013-04-10 05:10:00,
2013-04-09 22:30:00,54.4,30.5,27.28,ESE,113,0.0,0.0,40,0.00,,,0.08,WUHU216HW,2013-04-10 05:30:00,
2013-04-09 22:35:00,54.4,30.5,27.28,ESE,113,0.0,0.0,40,0.00,,,0.08,WUHU216HW,2013-04-10 05:35:00,
2013-04-09 23:00:00,53.8,30.6,27.28,ENE,68,0.0,0.0,41,0.00,,,0.08,WUHU216HW,2013-04-10 06:00:00,
2013-04-09 23:05:00,53.8,30.6,27.28,ENE,68,0.0,0.0,41,0.00,,,0.08,WUHU216HW,2013-04-10 06:05:00,
2013-04-09 23:10:00,53.8,30.6,27.28,ENE,68,0.0,0.0,41,0.00,,,0.08,WUHU216HW,2013-04-10 06:10:00,
2013-04-09 23:30:00,53.1,31.1,27.29,SE,135,0.0,0.0,43,0.00,,,0.08,WUHU216HW,2013-04-10 06:30:00,
2013-04-09 23:35:00,53.1,31.1,27.29,SE,135,0.0,0.0,43,0.00,,,0.08,WUHU216HW,2013-04-10 06:35:00,